Погода в Фиростефани

Греция     36°25′30″N   25°25′46″E
темп.,
°C
ветер,
м/с
пор.,
м/с
влажн.,
%
обл.,
%
осадки,
мм/ч
давл.,
гПа
погр.,
м
20 января, ср
ср2023:00+10ссз13146456 0.1 10251834
02:00+10ссз10116752 0.2 10251610
05:00+10ссз896297 0.3 10261496
08:00+11ссз775697 0.4 10281634
11:00+11ссз44501 0.0 10291300
14:00+11зсз44490 0.0 10281219
17:00+12з34450 0.0 1028975
20:00+12ююз45490 0.0 10271039
21 января, чт
чт2123:00+14юз666222 0.0 10281315
02:00+14з675924 0.0 10271162
05:00+14зсз4557100 0.0 10271299
08:00+14з7764100 0.0 10271344
11:00+14з786278 0.0 10291309
14:00+14з9106539 0.0 10261339
17:00+15з896548 0.1 10271500
20:00+15з896735 0.4 10271305
22 января, пт
пт2223:00+15зюз676692 0.3 10271138
02:00+15зюз886971 0.5 10261119
05:00+15юз8866100 0.3 10261082
08:00+15юз7663100 0.3 1026862
11:00+15ююз556299 0.0 1026972
14:00+14ююз335899 0.0 1025951
17:00+15юз3359100 0.0 10241234
20:00+14зюз446091 0.0 10241240
23 января, сб
сб2323:00+14ю336271 0.0 1023912
02:00+14ю556167 0.1 10221128
05:00+14ююз556373 0.1 10211229
08:00+14ю666647 0.1 10221085
11:00+14ююз886811 0.1 10211181
14:00+14ююв776538 0.1 10201216
17:00+15юз5562100 0.0 10181039
20:00+15ююв91067100 0.0 10191077
24 января, вс
вс2423:00+15ю896798 0.0 1018973
02:00+15ю11126899 0.0 1017900
05:00+15ю10107098 0.0 1016816
08:00+15ю12136950 0.0 1016822
11:00+16ююз9106691 0.0 10171009
14:00+16юз9107251 0.0 10161178
17:00+16юз810710 0.0 10151143
20:00+16юз896913 0.0 10161140